Wetbulb
48.54 48.70 48.38 49.50 49.70 48.99 47.96 46.10 40.66 49.52 51.82 40.12 39.65 33.67 36.10 38.23 38.73 41.03 37.78 38.17 35.36 34.14 35.05 34.33 34.49 33.67 36.68 39.62 39.23 35.29 43.35 41.89 38.73 42.39 47.01 48.58 48.01 46.58 46.55 42.16 41.22 43.73 43.22 42.70
49.15 49.17 49.18 48.58 49.27 49.14 46.01 42.57 42.91 50.06 48.97 34.05 34.52 36.76 37.27 38.35 37.38 37.61 36.98 35.63 37.67 38.87 35.78 31.52 35.41 36.45 40.12 40.23 38.97 36.87 40.06 39.53 37.00 39.60 44.58 46.78 45.23 46.51 47.87 47.83 47.96 42.84 40.62 42.62
48.79 49.17 49.24 49.02 49.00 49.10 47.48 43.30 37.92 44.16 45.64 41.23 35.22 34.01 34.83 34.63 39.38 38.08 38.52 37.64 39.53 37.38 36.08 37.97 34.70 35.62 39.06 40.44 39.64 41.14 41.81 39.57 39.89 37.18 41.40 44.79 42.96 44.52 46.94 46.57 42.81 43.59 43.39 45.16
48.68 49.06 49.52 49.28 48.90 48.93 47.62 43.96 39.27 40.06 35.59 37.09 36.22 35.81 34.78 32.49 32.37 38.16 39.66 36.74 36.86 35.09 32.27 34.88 33.29 35.54 37.83 40.08 40.76 40.50 40.49 37.18 41.18 42.23 42.13 42.32 44.25 44.22 44.94 44.79 45.80 43.03 44.93 44.47
48.90 48.66 49.47 49.55 49.18 48.81 45.20 41.31 38.10 39.14 37.95 37.63 35.00 35.29 34.41 34.51 35.50 36.20 34.35 35.54 37.48 37.74 35.06 34.89 33.68 35.63 36.35 33.74 38.04 38.81 40.99 36.81 41.37 39.22 42.35 42.61 41.79 44.76 45.42 45.38 46.26 46.12 46.01 45.28
49.03 49.24 49.23 49.48 49.55 49.02 43.03 43.77 44.91 39.94 36.72 35.35 33.70 35.16 35.14 34.39 35.89 38.54 38.85 37.06 36.67 35.97 38.36 41.29 42.25 42.69 41.87 39.55 37.56 37.67 37.87 37.70 38.58 36.04 42.43 41.75 39.27 44.07 45.03 45.87 47.19 46.98 43.50 48.03
49.22 49.26 48.84 49.79 50.01 49.13 48.29 45.51 43.28 37.54 33.24 34.67 34.09 35.26 36.04 35.31 36.33 34.13 38.73 39.29 36.84 41.14 44.37 44.43 44.67 44.27 42.72 42.03 41.01 42.06 38.13 37.40 39.90 38.47 41.08 33.01 45.04 49.62 48.56 46.67 47.43 47.43 47.98 49.88
48.70 49.21 49.20 49.94 50.12 50.12 48.18 48.79 43.21 38.53 34.17 36.52 37.02 37.41 35.50 37.34 39.26 36.98 38.50 40.34 41.44 43.46 41.43 36.26 36.42 37.48 38.15 39.63 40.79 40.49 42.38 38.08 35.97 36.46 37.52 42.00 44.35 46.45 46.82 45.98 45.76 49.55 49.93 51.25
48.22 48.85 49.12 49.99 49.99 50.40 48.76 49.56 48.27 42.21 35.36 36.74 38.95 35.91 37.20 35.55 36.21 38.53 39.53 43.36 45.17 41.61 38.35 35.54 31.05 31.12 32.86 33.08 36.34 42.03 40.79 40.71 35.84 38.29 34.44 32.88 43.40 46.88 49.11 49.61 44.07 49.44 49.93 50.35
48.09 48.37 48.62 49.31 50.16 50.60 50.27 48.97 49.61 43.33 36.21 41.30 40.48 36.05 36.01 39.18 37.82 34.91 38.46 39.79 39.52 41.71 37.08 32.94 32.48 32.67 36.90 31.57 32.69 33.74 33.59 36.06 32.47 34.14 37.57 41.36 45.66 48.08 49.59 41.52 42.91 49.60 50.63 51.54
47.73 48.22 48.45 48.94 50.32 50.61 50.61 48.69 50.68 44.55 39.34 40.68 42.72 41.92 39.21 39.15 38.88 35.31 38.77 38.76 39.92 38.15 33.47 33.92 33.55 33.50 36.68 35.08 36.13 34.65 34.27 32.64 32.51 33.77 35.57 35.22 47.47 47.58 44.70 45.85 50.29 51.01 51.72 52.57
47.78 47.95 48.27 48.68 49.60 50.43 49.84 46.60 50.91 49.26 41.45 41.76 46.70 46.29 46.31 44.92 44.72 40.08 39.73 38.75 37.79 38.50 36.12 37.41 35.25 33.67 36.96 36.16 33.06 40.20 36.24 38.31 37.31 37.84 37.19 42.64 48.04 46.42 49.79 50.07 49.46 50.85 51.24 52.85
47.91 47.64 48.33 48.31 48.45 49.62 49.34 48.37 48.40 46.53 41.44 42.36 45.50 44.60 46.90 47.96 46.35 47.21 35.93 39.88 42.12 41.39 43.72 38.52 37.44 33.30 34.78 33.11 34.51 34.94 38.25 40.74 38.63 38.90 40.74 40.71 43.59 47.42 49.07 49.61 49.45 51.10 52.72 53.22
47.92 48.19 48.48 48.27 48.29 49.06 49.20 48.07 49.51 46.09 42.67 36.53 43.61 49.71 47.60 48.57 46.93 45.41 43.87 40.89 42.60 42.69 42.37 39.92 38.74 36.84 39.75 36.59 36.58 37.34 39.89 40.61 39.06 39.88 41.52 42.13 43.86 44.61 46.93 47.72 49.09 50.21 52.86 53.46
47.61 48.08 48.54 48.28 48.10 48.18 48.90 50.00 50.91 49.31 42.98 38.84 41.48 47.28 48.63 49.36 47.10 46.23 45.49 42.91 41.07 40.65 40.18 39.30 39.28 41.25 40.62 42.17 39.57 37.13 39.41 38.03 37.07 37.69 42.38 41.17 41.83 45.30 46.73 47.21 47.14 48.54 51.27 52.24
47.52 47.92 47.70 48.10 48.53 48.68 49.29 46.11 50.53 50.57 45.81 39.40 36.00 47.79 46.42 48.79 49.37 47.57 46.96 46.53 43.63 42.96 43.86 41.84 43.81 44.89 42.04 37.91 37.75 39.65 42.96 44.04 43.70 41.56 45.63 46.31 46.59 47.59 47.55 46.04 47.60 49.09 51.17 53.11
47.77 47.97 47.89 48.40 49.82 49.56 47.70 46.07 48.58 48.03 46.61 40.66 37.95 42.80 47.97 48.56 49.02 50.72 48.32 47.17 48.13 46.26 45.50 43.52 43.73 42.16 43.56 39.18 35.40 40.19 42.36 42.93 44.12 46.91 46.79 45.41 47.58 46.10 47.44 47.61 49.55 50.30 52.65 54.01
47.59 47.48 47.28 50.00 49.24 48.50 48.14 50.83 47.91 48.46 45.78 44.39 36.77 41.59 43.82 48.66 43.93 44.89 48.92 45.16 46.53 45.89 43.57 44.35 42.47 42.62 42.68 37.27 39.81 40.19 41.91 41.36 43.57 44.78 46.17 46.92 48.07 48.64 48.79 49.26 49.46 49.05 50.21 52.65
47.29 47.26 48.91 50.29 49.26 48.89 48.80 48.87 48.73 49.67 45.28 39.13 41.19 36.58 35.48 48.46 43.52 43.56 46.41 46.89 40.01 46.74 41.10 39.76 41.06 38.84 36.35 37.52 38.26 39.38 40.92 41.18 42.40 43.92 45.71 47.02 46.35 47.17 48.41 49.24 49.37 48.88 49.63 51.51
46.78 48.24 48.11 46.27 48.56 47.49 49.23 45.76 43.34 42.63 43.93 42.91 38.93 43.89 38.23 43.76 42.88 41.24 41.51 45.45 42.93 39.35 41.58 43.34 38.89 39.06 42.11 41.33 41.43 42.52 43.29 44.14 44.76 43.18 42.27 44.71 45.56 46.96 47.88 48.51 49.49 49.61 50.43 51.45
46.86 43.46 43.44 45.96 47.91 47.81 46.27 42.05 40.75 42.82 39.75 43.01 43.59 44.35 40.60 45.78 39.31 37.57 42.07 40.52 43.70 37.88 40.16 39.47 39.63 37.49 41.59 44.76 45.40 46.10 46.25 45.67 45.81 45.89 46.73 47.02 47.34 46.15 48.04 49.15 49.95 50.43 50.98 51.56
43.43 42.53 43.92 43.25 42.81 44.26 40.43 40.54 42.45 40.88 39.62 44.10 43.64 44.66 44.92 44.85 45.58 39.65 42.35 37.71 41.43 34.71 44.06 39.37 35.42 40.83 44.59 45.58 45.81 47.18 47.26 46.54 45.41 46.23 46.31 48.21 49.09 49.51 49.25 50.26 50.74 51.31 51.82 52.05
46.03 41.21 38.73 40.54 43.19 35.18 35.77 33.40 38.26 39.14 43.06 44.59 45.15 42.51 45.90 43.86 44.63 41.76 40.26 32.91 36.63 42.86 39.51 37.36 41.36 44.12 45.54 46.31 46.41 46.62 48.34 48.51 48.19 46.13 46.71 47.29 48.25 49.60 50.30 50.34 51.38 52.87 52.42 52.44
40.74 37.69 34.42 38.55 37.02 39.38 41.13 41.02 43.00 45.79 45.11 45.35 45.61 44.41 43.65 43.86 40.35 41.94 32.12 40.39 40.70 35.39 33.12 35.55 42.88 44.94 46.27 47.33 47.38 46.58 46.74 47.70 48.04 48.02 47.97 48.11 47.12 46.80 49.07 49.59 49.92 50.67 52.19 52.81
38.54 39.75 33.87 38.42 43.30 45.45 45.60 46.28 45.88 46.44 48.48 46.47 44.74 44.07 43.61 42.02 38.82 40.43 37.77 34.72 32.94 35.26 36.46 42.95 45.71 46.83 47.14 47.22 47.45 47.43 47.14 47.72 47.83 48.43 47.49 46.43 47.36 48.31 48.97 49.64 49.20 49.37 50.65 52.57
39.51 40.83 40.10 43.68 42.08 42.17 43.73 44.31 44.20 48.03 47.29 47.70 45.98 41.80 39.13 38.35 39.52 33.80 33.38 32.26 30.77 35.12 41.54 45.96 47.65 46.69 47.49 47.73 47.90 48.15 48.11 48.44 48.02 48.67 48.36 48.65 47.14 47.31 48.67 48.46 47.37 47.43 47.24 47.83
40.05 40.85 44.97 43.40 43.59 42.65 43.54 45.03 44.96 48.64 45.24 40.99 43.31 36.05 35.47 41.81 37.31 35.58 37.09 33.67 37.29 44.17 45.98 48.73 47.90 47.65 47.56 47.82 48.21 48.04 48.26 48.09 48.43 48.68 48.91 48.16 49.86 49.43 49.15 46.79 47.26 48.09 49.43 48.48
MSLP
1023.72 1023.07 1022.42 1021.81 1021.14 1020.24 1018.61 1017.44 1016.00 1016.95 1016.94 1016.53 1016.16 1015.59 1014.58 1013.89 1012.40 1011.77 1011.28 1010.45 1009.79 1008.80 1007.93 1006.93 1006.53 1006.22 1006.42 1008.37 1008.00 1006.71 1003.61 1001.21 997.45 994.52 993.78 993.02 992.84 992.65 993.46 992.87 993.40 993.31 992.42 991.78
1023.66 1023.00 1022.39 1021.81 1021.15 1020.66 1019.74 1017.45 1017.00 1016.80 1016.75 1016.33 1015.98 1015.45 1014.13 1013.35 1012.68 1011.87 1011.46 1010.77 1009.73 1009.09 1008.16 1007.54 1006.75 1006.88 1007.85 1007.91 1007.90 1007.44 1005.62 1001.94 998.13 995.40 994.15 993.47 992.33 992.59 992.99 993.29 992.76 993.04 992.54 991.81
1023.50 1022.89 1022.33 1021.74 1021.22 1020.64 1019.79 1018.06 1016.86 1016.17 1016.39 1016.72 1016.57 1015.57 1014.04 1013.18 1012.74 1011.92 1011.58 1010.68 1009.91 1009.29 1008.01 1007.49 1007.17 1007.77 1008.24 1008.16 1007.98 1007.62 1006.66 1003.04 998.54 995.37 993.74 993.07 992.35 992.20 992.62 993.15 992.55 992.27 992.40 991.71
1023.31 1022.78 1022.14 1021.62 1021.22 1020.53 1019.70 1018.48 1017.70 1017.93 1016.83 1016.60 1016.69 1015.86 1014.91 1013.79 1013.02 1012.34 1011.31 1010.44 1009.81 1009.41 1008.66 1007.72 1007.67 1008.08 1007.82 1007.61 1007.78 1007.38 1006.01 1002.25 999.52 997.92 996.56 995.31 993.34 992.33 992.37 992.57 992.89 992.25 992.00 992.08
1023.13 1022.58 1022.00 1021.48 1021.11 1020.52 1019.66 1019.23 1019.02 1018.42 1017.68 1016.96 1016.39 1015.50 1014.57 1013.80 1013.22 1012.75 1011.66 1010.64 1010.02 1009.63 1008.72 1008.02 1007.19 1007.21 1007.66 1007.93 1007.68 1006.87 1005.55 1002.63 999.77 998.30 997.30 995.83 994.16 992.66 992.38 992.69 993.12 992.90 992.53 992.25
1022.99 1022.40 1021.86 1021.27 1020.89 1020.58 1020.35 1020.07 1019.64 1019.41 1017.75 1016.82 1016.40 1015.43 1014.98 1014.49 1014.13 1012.80 1011.76 1011.46 1010.87 1009.57 1008.56 1008.22 1007.66 1007.23 1006.96 1007.08 1006.76 1006.09 1004.98 1003.60 1000.45 997.96 996.69 995.80 994.60 993.25 992.53 992.90 993.23 993.11 992.70 992.58
1022.75 1022.13 1021.54 1021.07 1020.74 1020.59 1020.36 1020.16 1020.04 1019.38 1017.55 1016.65 1016.03 1015.38 1014.89 1014.19 1013.66 1013.06 1012.10 1011.58 1011.08 1009.70 1009.47 1008.32 1006.70 1005.71 1005.58 1005.47 1005.11 1005.26 1004.49 1003.84 1001.06 997.51 996.97 995.55 994.06 993.37 993.26 993.28 993.83 994.04 993.90 993.46
1022.37 1021.77 1021.20 1020.77 1020.45 1020.18 1019.84 1019.81 1019.98 1019.33 1017.83 1016.49 1015.26 1014.70 1014.70 1013.85 1012.98 1012.46 1011.61 1011.12 1011.70 1011.07 1010.19 1008.21 1005.26 1003.75 1003.80 1003.17 1003.53 1004.08 1004.32 1004.17 1002.04 998.46 996.65 995.45 995.39 995.86 994.98 994.41 995.92 996.34 995.41 994.90
1022.08 1021.50 1020.91 1020.39 1020.04 1019.80 1019.41 1018.97 1019.53 1019.42 1018.53 1015.82 1015.19 1014.85 1014.36 1013.41 1012.82 1011.84 1011.24 1011.13 1010.89 1011.15 1009.97 1008.10 1005.71 1003.60 1003.16 1002.95 1002.83 1003.39 1003.97 1004.12 1003.59 1000.30 998.15 996.77 997.67 997.66 997.54 996.96 996.88 998.09 997.83 997.24
1021.82 1021.21 1020.61 1020.03 1019.64 1019.38 1019.16 1018.64 1018.99 1019.02 1018.06 1015.69 1015.12 1014.83 1014.34 1013.95 1013.38 1012.92 1011.83 1011.49 1010.97 1011.02 1010.01 1008.54 1006.58 1004.88 1003.99 1004.13 1003.86 1004.01 1004.46 1004.35 1003.80 1002.11 999.51 999.07 999.69 998.64 998.24 998.13 999.47 999.40 999.00 998.46
1021.50 1020.85 1020.27 1019.71 1019.17 1018.91 1018.69 1017.75 1018.15 1018.48 1017.56 1015.45 1014.83 1014.46 1014.15 1013.86 1013.68 1013.16 1012.49 1012.01 1011.44 1010.88 1010.33 1009.36 1008.34 1007.12 1005.79 1005.28 1005.32 1005.15 1005.05 1004.56 1004.15 1003.57 1001.48 1001.14 1001.00 999.62 999.14 1000.76 1000.29 1000.02 999.54 998.98
1021.03 1020.43 1019.79 1019.24 1018.76 1018.44 1018.31 1017.46 1017.37 1018.06 1017.90 1015.35 1014.44 1013.79 1013.61 1013.56 1013.24 1013.58 1013.39 1012.91 1012.54 1011.64 1010.94 1010.19 1009.31 1008.34 1007.40 1006.37 1005.42 1005.64 1005.89 1005.71 1004.99 1004.60 1004.17 1003.82 1002.35 1002.10 1002.07 1001.92 1001.31 1000.60 999.89 999.28
1020.55 1019.84 1019.26 1018.64 1018.24 1017.93 1017.82 1017.12 1017.19 1017.67 1016.82 1014.55 1012.58 1011.77 1012.24 1012.73 1012.87 1013.23 1013.90 1013.16 1012.46 1011.86 1011.65 1010.93 1009.67 1008.92 1008.50 1007.68 1007.32 1007.09 1006.90 1006.61 1005.71 1005.21 1005.14 1004.72 1003.91 1003.53 1003.07 1002.65 1002.04 1001.23 1000.17 999.46
1019.98 1019.33 1018.61 1018.02 1017.55 1017.33 1017.25 1016.56 1016.36 1016.95 1016.58 1015.26 1011.64 1011.39 1011.26 1011.69 1012.46 1012.93 1013.01 1013.16 1012.82 1012.35 1011.46 1010.31 1008.93 1008.30 1008.56 1008.03 1008.03 1007.57 1007.31 1006.93 1006.34 1005.31 1005.41 1005.03 1004.44 1004.40 1003.81 1003.17 1002.53 1001.69 1000.34 999.58
1019.11 1018.60 1017.89 1017.32 1016.93 1016.72 1016.63 1016.05 1015.65 1016.06 1016.81 1015.23 1012.65 1011.66 1010.86 1011.12 1011.67 1012.03 1012.36 1012.53 1012.26 1011.48 1010.27 1009.05 1007.42 1007.33 1007.57 1007.08 1007.83 1008.11 1008.24 1007.93 1007.25 1006.19 1005.88 1005.89 1005.49 1004.77 1004.35 1003.51 1002.82 1002.13 1000.60 999.57
1018.42 1017.77 1017.06 1016.46 1016.04 1016.10 1015.94 1015.12 1015.34 1015.70 1016.57 1015.91 1013.60 1010.85 1010.56 1010.20 1010.29 1010.87 1011.00 1011.17 1011.15 1010.58 1008.85 1007.72 1007.13 1007.33 1007.56 1006.57 1006.35 1008.11 1007.42 1007.27 1007.07 1006.47 1005.77 1005.22 1004.91 1004.45 1004.17 1003.86 1003.12 1002.11 1000.91 999.65
1017.68 1017.00 1016.17 1015.36 1015.15 1015.31 1014.65 1014.84 1014.69 1015.63 1016.38 1015.68 1013.37 1010.43 1009.95 1010.18 1009.83 1009.94 1010.18 1010.45 1009.85 1009.21 1008.13 1007.60 1007.22 1007.25 1007.48 1006.88 1007.50 1008.05 1007.99 1007.65 1007.07 1006.11 1005.35 1004.68 1003.93 1003.98 1004.00 1003.61 1002.77 1001.91 1000.87 999.65
1016.94 1016.33 1015.70 1015.00 1015.02 1015.09 1014.63 1014.83 1015.48 1015.60 1015.21 1014.65 1013.42 1010.90 1009.44 1010.20 1009.56 1009.35 1009.49 1009.34 1009.17 1008.81 1008.52 1008.29 1007.97 1007.70 1007.58 1007.89 1008.94 1008.88 1008.27 1007.88 1006.88 1005.86 1005.67 1004.99 1004.40 1003.94 1003.31 1003.01 1002.47 1001.73 1000.87 999.96
1016.22 1015.67 1015.48 1015.26 1014.81 1013.86 1014.49 1015.08 1015.38 1015.28 1015.15 1013.86 1012.83 1011.77 1010.45 1009.93 1010.16 1009.94 1009.14 1009.16 1008.57 1008.82 1008.94 1009.17 1009.38 1009.02 1009.04 1009.38 1009.23 1008.71 1008.21 1007.73 1007.04 1006.40 1005.68 1004.69 1004.07 1003.40 1002.89 1002.49 1002.12 1001.65 1000.82 1000.25
1015.58 1014.88 1014.64 1013.70 1014.35 1015.23 1015.19 1015.21 1014.85 1014.70 1014.07 1013.69 1012.50 1011.68 1011.04 1011.02 1010.24 1009.80 1009.50 1008.90 1008.15 1007.89 1008.67 1009.20 1009.16 1008.62 1008.85 1009.36 1009.15 1008.59 1008.03 1007.51 1006.90 1006.16 1005.42 1004.48 1003.91 1003.26 1002.64 1002.19 1001.73 1001.38 1000.89 1000.23
1015.50 1014.94 1014.61 1015.05 1014.80 1014.41 1013.67 1013.13 1013.04 1012.49 1012.12 1011.79 1011.17 1010.78 1010.85 1011.19 1010.88 1010.51 1010.25 1009.25 1008.43 1007.59 1008.01 1008.21 1007.85 1007.59 1007.75 1007.93 1007.84 1007.56 1007.08 1006.94 1006.58 1006.11 1005.39 1004.72 1004.10 1003.43 1002.69 1001.94 1001.50 1001.00 1000.55 1000.16
1017.19 1017.23 1016.51 1015.80 1014.63 1012.99 1012.24 1011.20 1011.04 1010.78 1009.69 1009.81 1009.68 1009.75 1010.49 1010.80 1011.12 1010.84 1010.11 1009.58 1008.88 1007.83 1008.09 1007.62 1007.00 1007.10 1007.04 1007.08 1006.92 1006.61 1006.45 1006.37 1006.13 1005.87 1005.34 1004.59 1003.88 1003.20 1002.50 1001.87 1001.21 1000.70 1000.37 1000.04
1016.24 1016.57 1015.69 1014.56 1012.85 1011.68 1010.13 1009.34 1008.63 1008.54 1008.44 1008.50 1008.81 1009.25 1009.74 1010.95 1010.92 1010.56 1010.25 1009.99 1009.21 1009.08 1007.85 1006.99 1006.86 1006.57 1006.44 1006.51 1006.52 1006.34 1005.83 1005.45 1005.10 1005.27 1005.09 1004.62 1004.03 1003.42 1002.50 1001.75 1001.16 1000.58 1000.13 999.93
1015.42 1014.89 1013.91 1012.28 1010.50 1009.29 1008.14 1007.68 1007.33 1007.48 1007.70 1007.91 1008.25 1008.57 1009.38 1009.95 1010.16 1009.97 1010.13 1009.59 1009.59 1008.73 1007.87 1007.02 1006.37 1006.43 1006.46 1006.36 1006.16 1005.88 1005.57 1005.18 1004.75 1004.42 1004.17 1003.95 1003.88 1003.57 1002.99 1002.29 1001.78 1001.12 1000.29 999.81
1014.79 1013.71 1011.92 1009.66 1008.43 1007.74 1007.39 1007.20 1007.21 1007.20 1007.48 1007.74 1007.99 1008.26 1008.77 1009.03 1009.41 1009.68 1009.84 1009.45 1009.26 1008.67 1007.76 1006.95 1006.66 1006.64 1006.47 1006.28 1006.17 1005.90 1005.65 1005.26 1004.83 1004.51 1004.37 1004.48 1004.14 1003.56 1002.89 1002.36 1002.11 1001.58 1000.85 1000.05
1013.97 1011.98 1009.87 1008.44 1007.78 1006.74 1006.72 1006.64 1006.36 1006.46 1006.99 1007.50 1007.56 1007.35 1007.78 1008.02 1008.73 1009.30 1009.28 1009.31 1008.81 1008.16 1007.54 1006.70 1006.60 1006.61 1006.48 1006.38 1006.18 1005.99 1005.66 1005.40 1005.07 1004.76 1004.55 1004.54 1004.50 1004.15 1003.31 1002.96 1002.71 1002.23 1001.79 1001.16
1011.78 1009.65 1008.37 1007.59 1006.70 1006.25 1005.74 1005.76 1005.72 1006.09 1006.49 1006.25 1006.39 1006.63 1006.71 1007.65 1007.60 1007.98 1008.67 1008.42 1007.69 1007.01 1006.34 1006.32 1006.53 1006.53 1006.48 1006.41 1006.21 1005.95 1005.73 1005.47 1005.23 1005.03 1004.65 1004.65 1004.35 1004.04 1003.47 1002.98 1002.77 1002.60 1002.17 1001.64
Wind_Speed
20 20 22 21 21 21 10 4 2 4 4 3 2 5 11 8 12 11 11 9 6 8 10 12 12 8 2 9 3 10 6 9 11 26 25 23 24 21 25 14 20 10 7 2
18 17 17 21 20 16 6 7 3 3 5 5 6 11 15 10 14 15 7 11 6 13 11 6 5 6 12 11 7 4 4 12 12 12 25 23 27 22 26 15 9 18 12 3
18 17 16 18 17 15 7 5 4 1 2 4 8 12 8 12 10 10 12 13 12 12 10 7 7 9 7 5 7 9 8 10 17 6 21 17 26 28 26 23 12 13 16 11
18 18 16 17 18 15 7 4 2 4 5 5 11 11 8 12 9 8 14 6 7 10 8 17 3 7 13 7 5 5 5 12 19 13 8 7 13 25 22 26 19 16 14 18
18 18 18 16 16 14 4 4 4 4 10 9 11 6 8 12 14 12 10 13 17 17 16 13 17 13 6 2 5 6 5 6 13 16 14 8 8 13 26 23 22 21 11 13
18 17 18 16 13 6 1 1 2 3 7 6 7 6 10 12 16 10 9 13 17 15 12 14 18 17 14 14 13 7 4 5 10 17 16 7 11 12 18 21 20 21 19 15
17 16 17 15 13 4 2 1 2 3 6 6 9 14 13 16 16 12 15 14 13 9 20 21 19 19 19 18 17 13 8 7 9 13 12 12 10 2 13 17 20 20 16 15
19 17 16 15 13 7 4 2 2 2 7 10 14 11 15 14 11 12 14 10 7 14 14 8 9 8 8 14 18 16 13 5 6 8 12 8 9 9 4 9 8 7 9 10
20 18 16 14 13 9 5 3 4 2 5 4 12 14 13 11 10 8 8 13 6 4 4 5 7 4 3 3 3 12 12 7 5 6 15 14 10 8 5 4 9 8 6 5
21 20 18 16 13 10 5 3 6 3 5 10 7 6 9 8 7 6 11 10 4 2 3 3 6 5 3 2 3 11 7 5 8 6 8 9 12 10 4 12 7 9 7 8
21 20 19 17 14 11 5 5 8 3 4 13 13 11 12 9 9 4 9 9 2 4 3 3 4 4 5 5 5 4 5 6 5 4 7 7 16 2 5 9 7 9 9 10
21 21 19 17 14 10 6 5 4 5 5 10 18 18 18 19 19 11 3 5 6 3 4 2 3 3 3 7 2 3 1 4 3 5 4 8 4 10 10 9 9 11 12 13
22 22 20 18 15 11 6 5 3 3 4 9 7 2 1 5 9 6 3 3 4 3 4 3 2 3 2 4 4 3 5 5 2 3 5 8 5 10 11 13 12 14 12 13
23 23 21 18 15 10 8 6 3 2 3 4 2 5 9 3 7 8 13 5 6 5 6 3 3 2 3 3 2 4 6 5 8 1 6 7 2 13 15 16 14 16 14 14
24 24 24 20 15 9 6 5 5 5 3 5 8 16 2 5 5 8 9 10 5 3 4 5 3 3 4 3 4 3 5 5 4 3 5 2 9 15 16 14 16 17 16 16
27 27 27 22 14 8 6 5 5 6 4 3 4 5 4 6 3 2 3 4 5 4 4 3 3 2 5 5 3 2 5 2 5 8 14 14 13 12 6 16 17 15 17 15
27 25 27 21 6 8 3 5 5 8 5 3 5 4 3 5 3 1 3 2 2 5 4 3 4 3 5 4 5 14 14 15 15 16 13 14 7 13 14 14 16 15 17 13
25 24 21 5 11 3 4 4 9 9 4 3 4 5 3 4 4 2 3 2 2 2 4 4 6 6 5 4 14 15 14 14 13 11 14 14 15 15 14 12 13 15 14 14
26 19 3 5 6 4 5 3 9 4 3 3 2 3 4 4 2 4 2 2 2 2 2 3 4 3 3 6 13 14 14 11 14 14 17 15 13 14 13 12 11 13 13 14
24 5 5 4 4 7 7 4 4 4 4 4 4 2 4 3 2 2 3 1 2 2 4 2 1 3 6 3 8 10 11 11 12 12 11 13 12 13 13 13 12 11 13 14
5 5 3 6 4 4 4 3 4 4 4 5 5 4 5 2 3 3 1 4 1 3 4 2 2 4 8 5 7 8 10 9 11 10 11 11 12 12 13 13 11 12 12 12
9 9 7 3 4 4 5 4 4 5 2 5 3 2 3 0 2 2 2 3 2 2 2 3 2 5 10 11 13 13 10 11 11 11 12 11 10 11 11 12 13 12 13 12
2 3 4 3 3 4 6 6 4 4 5 4 2 3 1 2 2 3 2 2 2 4 3 1 2 6 8 10 10 12 13 14 12 9 11 12 12 13 13 12 11 13 11 11
3 3 5 6 6 6 4 5 2 2 4 3 3 2 3 3 4 2 2 0 1 2 2 2 3 7 9 10 11 11 15 16 17 18 10 12 13 13 12 13 14 14 14 11
5 4 6 7 7 3 3 4 3 5 3 3 3 3 3 3 3 2 2 3 3 3 2 2 3 7 7 8 10 12 12 13 14 15 15 13 14 13 13 13 13 13 14 13
5 7 6 5 5 7 6 7 8 4 4 2 3 3 4 4 2 3 4 2 4 3 3 4 4 5 6 7 8 10 11 12 12 12 14 14 12 12 14 15 13 14 14 16
6 7 8 10 7 7 6 4 6 5 6 5 2 4 3 2 3 2 3 5 4 4 3 2 4 4 4 6 7 8 10 11 12 12 12 11 13 13 12 15 13 13 14 14
Wind_Direction
347 348 348 343 345 342 317 318 300 54 293 294 351 326 325 320 303 326 300 284 290 282 296 281 263 262 235 170 269 303 269 278 261 213 201 215 199 200 198 199 193 240 242 190
344 344 346 345 342 356 324 331 302 111 293 350 343 316 305 285 302 322 322 297 278 312 292 295 283 321 113 168 207 294 351 227 228 224 200 206 209 209 195 214 190 202 206 207
346 343 343 336 342 346 301 320 325 21 13 354 325 336 327 328 318 315 297 300 287 325 314 266 291 345 329 291 246 238 250 261 245 215 189 192 205 201 192 204 207 186 212 189
348 344 337 335 339 339 287 9 19 354 312 340 311 307 298 309 340 314 315 293 312 331 312 317 119 304 320 294 208 240 256 243 224 246 305 307 268 206 198 205 215 227 190 221
346 342 335 334 341 327 310 351 352 338 295 300 323 309 299 315 330 310 300 299 328 323 302 295 301 312 307 318 340 293 257 285 252 239 240 241 238 243 205 204 206 227 216 229
342 338 333 334 337 336 310 17 273 274 289 300 311 318 319 302 308 284 307 308 305 298 325 327 305 294 286 266 281 290 311 302 233 226 212 210 223 210 217 204 208 219 221 233
339 341 333 333 336 347 267 241 267 267 288 325 299 302 307 313 311 292 292 295 282 324 326 303 277 251 248 251 252 246 268 312 277 235 165 213 86 28 206 211 208 222 230 233
337 339 336 335 332 330 271 187 232 257 286 309 292 324 315 298 311 300 298 321 281 300 299 279 266 209 246 232 223 222 234 259 288 241 195 130 110 39 335 205 133 0 307 295
336 336 337 333 327 326 281 242 198 264 293 264 329 307 293 306 323 308 329 329 329 310 280 268 276 298 333 109 190 193 210 221 294 264 212 207 43 357 332 266 162 21 348 330
336 336 336 334 326 319 291 260 186 236 264 272 318 292 303 296 310 287 307 332 298 203 293 277 294 291 282 299 201 169 178 211 232 262 235 100 9 343 186 215 71 352 341 337
332 334 333 330 324 321 291 273 178 221 261 283 276 289 283 276 276 276 318 310 66 291 306 303 350 287 343 279 122 157 192 188 183 243 259 147 360 23 329 23 357 353 345 341
326 327 328 328 322 315 282 269 153 214 237 275 302 286 273 268 276 288 262 290 315 295 309 344 307 302 301 326 27 123 137 354 351 3 35 331 312 58 49 11 356 350 342 341
322 322 321 323 319 302 252 271 146 208 261 281 242 274 21 226 225 207 245 248 303 298 12 295 277 296 340 345 36 287 7 343 306 275 32 340 33 20 14 359 350 335 340 334
321 319 315 318 315 292 236 231 183 243 295 286 353 178 327 246 185 186 206 225 262 281 285 269 285 318 28 345 339 325 6 336 337 341 48 347 261 345 341 339 343 337 337 338
320 321 319 318 312 284 228 251 237 200 281 312 312 302 216 298 194 239 221 217 248 273 257 230 328 3 326 203 145 31 351 359 340 4 19 272 299 308 323 325 337 330 334 332
320 325 320 313 299 210 209 213 177 187 183 273 292 357 266 331 73 127 84 220 215 238 266 311 312 65 316 308 34 110 331 295 290 303 308 309 293 307 324 329 321 324 320 324
318 324 323 310 239 188 261 9 65 140 163 248 275 277 116 328 295 166 150 225 280 298 325 318 331 350 305 296 15 6 348 335 325 305 304 302 317 321 320 316 316 321 315 326
317 325 327 346 147 262 213 107 144 161 238 226 282 290 276 24 337 340 18 273 276 311 327 335 351 323 335 4 348 333 329 322 308 334 317 300 299 299 302 320 317 317 322 331
317 321 172 214 228 204 78 355 160 222 296 285 238 301 306 6 58 274 252 273 225 51 348 30 316 17 7 314 320 309 308 308 306 306 303 303 301 298 305 318 323 317 319 323
311 256 231 202 59 327 136 192 184 195 182 224 256 347 287 331 333 299 290 230 316 256 74 146 335 7 25 339 323 346 332 327 324 299 303 312 313 315 311 310 314 313 311 316
331 339 317 348 308 230 222 207 222 170 218 201 229 261 291 120 305 319 299 300 305 266 90 289 113 15 6 2 330 310 330 329 321 322 307 283 287 299 306 307 307 305 308 310
314 305 305 303 257 212 233 203 160 221 270 170 250 12 245 126 256 271 268 282 265 4 342 237 28 20 3 360 355 353 359 13 348 355 350 348 319 312 307 306 307 305 302 304
255 205 230 222 204 236 216 199 180 205 183 176 223 297 79 175 250 252 287 281 259 310 261 9 297 359 7 0 356 355 359 358 13 11 3 360 352 348 341 327 318 312 298 298
255 252 260 223 198 232 210 206 216 112 228 213 253 273 234 184 223 254 243 270 290 255 253 226 8 359 353 349 357 359 358 3 2 6 5 356 20 352 342 355 354 338 314 304
257 200 242 228 239 240 224 229 215 190 226 219 205 207 230 184 249 213 278 219 235 238 229 297 334 340 345 344 348 352 358 359 2 3 15 13 354 355 356 6 1 347 337 316
240 235 255 232 253 242 211 222 235 183 193 186 242 242 223 208 213 203 221 233 229 231 221 278 335 338 346 344 340 344 350 353 359 360 8 6 7 355 357 13 10 5 1 352
227 234 231 261 271 278 281 238 239 157 202 242 210 230 232 117 222 229 193 214 216 233 262 289 312 314 349 337 333 340 344 347 356 2 3 360 355 357 7 17 12 355 352 349